RH
49 50 50 32 17 22 29 36 15 12 14 16 37 53 55 57 52 65 82 78 68 56 16 7 7 7 10 16 16 16 17 17 19 35 59 60 63 63 51 29 17 15 14
55 52 50 34 15 19 26 27 14 12 14 12 22 36 48 41 57 68 81 75 63 61 9 6 8 12 16 16 19 22 22 21 27 48 51 52 40 22 17 15 14 13 13
55 55 53 35 15 17 29 20 13 11 10 10 10 16 28 42 58 62 72 62 76 64 6 8 13 18 17 20 25 27 23 21 25 28 25 22 18 16 16 15 14 14 15
55 56 53 37 18 17 27 18 13 12 10 10 10 10 21 41 49 53 58 60 81 44 6 12 18 17 19 21 20 21 21 20 19 19 17 17 18 17 16 16 16 17 17
62 57 55 36 23 20 20 19 15 12 11 11 11 11 10 33 47 44 52 82 80 22 9 19 18 19 22 21 19 21 19 17 16 16 17 19 18 18 18 18 19 19 19
69 57 56 38 26 22 20 20 16 13 12 12 13 13 12 13 42 37 66 88 76 8 16 19 20 21 21 19 18 17 16 15 16 18 20 20 19 19 20 20 21 22 23
64 68 55 42 31 25 24 23 17 13 13 13 14 15 14 14 45 53 72 87 47 10 20 20 21 22 19 16 16 16 16 18 19 21 22 21 22 21 21 24 26 27 26
59 66 59 42 42 30 28 27 18 14 14 14 16 16 15 28 57 62 73 85 11 19 21 22 22 19 16 16 17 18 20 20 21 22 24 23 24 27 28 28 27 26 27
67 71 70 53 52 42 36 28 19 15 15 16 18 16 15 34 69 41 70 51 12 22 23 24 21 16 17 18 19 20 20 21 23 25 28 29 27 28 28 27 26 26 26
84 81 77 78 64 50 41 33 19 16 17 19 18 16 16 41 38 28 47 10 22 24 25 23 17 18 19 20 21 24 24 26 28 28 28 29 28 25 25 24 24 25 26
95 78 76 95 80 61 43 33 21 19 20 20 18 17 18 21 26 36 14 16 23 26 25 19 18 18 21 23 26 28 27 27 31 31 26 23 22 20 21 24 26 27 20
89 76 87 76 82 67 45 33 23 22 22 21 20 18 14 14 20 17 11 23 26 28 22 20 20 21 26 28 27 29 31 30 26 23 21 18 21 24 26 26 21 17 20
92 94 82 92 98 76 41 30 24 23 22 21 20 17 15 13 18 11 20 25 28 26 20 21 22 25 28 30 32 29 24 23 23 22 21 22 22 22 24 25 28 35 44
100 99 96 75 74 88 39 31 24 23 21 22 21 18 15 12 14 14 22 25 26 21 22 22 25 27 32 33 26 24 23 24 26 26 27 27 27 29 33 37 42 49 55
85 100 98 82 74 86 41 35 26 24 23 24 22 20 16 13 14 20 23 27 25 20 22 24 28 32 30 28 26 24 24 25 26 28 30 32 33 35 38 40 46 51 55
91 94 96 80 67 76 47 36 28 24 25 24 23 21 19 17 19 21 24 28 22 22 25 27 30 28 31 41 47 48 47 44 38 32 29 28 30 32 37 41 45 50 54
85 97 98 84 55 70 64 38 31 26 25 24 23 22 21 21 21 24 30 25 23 24 26 28 26 42 52 55 56 55 55 54 54 54 52 49 44 37 34 35 39 42 48
94 97 98 88 90 84 67 40 35 28 26 24 23 22 22 22 24 30 29 24 25 24 25 28 48 54 56 55 54 54 53 53 52 53 54 54 54 53 50 44 40 40 46
95 90 92 96 98 70 70 46 40 31 27 25 23 22 22 24 28 30 26 25 25 24 27 46 55 55 55 54 53 52 51 51 50 50 50 51 52 53 54 54 51 45 45
83 93 98 99 84 80 84 64 46 34 28 25 24 23 23 27 29 31 26 26 25 26 44 54 55 54 54 53 52 51 50 50 49 49 49 48 48 49 51 53 55 54 48
75 97 100 99 72 82 83 75 44 38 28 26 25 24 26 28 28 27 27 26 25 38 51 54 54 53 52 52 51 51 50 48 47 46 46 46 48 61 62 57 56 56 55
83 78 91 99 99 87 79 69 51 46 30 28 27 25 29 31 31 28 25 26 29 44 51 53 52 52 51 51 52 50 51 66 71 73 68 69 82 85 85 93 85 61 58
80 79 98 93 97 97 91 90 67 52 40 31 28 27 30 33 32 31 28 28 33 44 48 50 50 50 50 51 53 58 66 65 74 78 92 90 87 87 84 100 92 64 64
68 68 87 99 97 99 96 91 63 48 47 34 31 28 29 33 35 35 33 30 33 40 44 47 48 49 50 53 56 69 74 74 83 86 80 85 84 79 96 99 100 81 70
78 79 87 91 99 86 98 85 79 77 64 54 38 33 31 33 35 34 36 34 35 39 43 45 47 48 52 55 57 74 84 82 80 90 82 99 84 89 99 95 96 96 93
83 80 69 91 97 100 96 93 89 82 81 78 68 41 35 33 36 36 37 39 42 42 43 45 52 57 62 59 68 84 91 85 85 90 89 90 96 79 79 98 98 94 98
Wind_Speed
18 25 21 20 21 19 18 17 16 15 14 14 14 14 13 12 11 10 9 7 4 4 4 7 10 11 12 11 11 12 13 14 15 14 16 16 14 12 10 9 8 8 8
14 25 24 22 22 21 20 18 18 17 16 15 15 15 14 12 12 10 9 6 4 5 5 9 10 11 11 11 12 13 13 14 15 15 14 14 11 10 9 9 8 7 9
29 19 26 24 23 22 21 20 19 18 17 17 16 15 14 14 13 12 10 6 6 5 7 10 11 10 11 12 12 13 13 13 14 14 12 11 10 10 9 9 9 8 10
30 24 24 26 25 24 22 22 21 19 18 17 16 16 16 15 14 13 11 9 8 5 9 11 11 11 11 11 11 11 11 12 12 12 11 11 11 10 9 9 9 9 10
20 33 23 28 27 26 24 23 22 20 19 17 16 15 15 16 15 15 13 13 9 7 11 11 10 11 12 11 11 11 11 11 12 12 12 12 11 10 9 9 9 10 10
17 29 30 28 29 29 26 24 22 20 19 18 16 15 15 16 16 16 17 14 9 11 12 11 12 11 11 11 12 11 11 12 13 13 12 11 10 9 9 9 9 9 10
24 26 34 29 31 31 28 25 23 21 20 18 17 16 15 16 17 18 18 14 12 15 13 13 12 11 10 12 12 12 12 13 13 12 11 10 9 9 9 8 8 8 8
36 25 30 32 33 32 29 27 25 23 22 20 19 18 17 17 20 21 19 15 16 16 15 14 12 11 12 13 13 12 13 13 13 12 10 9 9 9 8 7 6 7 8
39 30 27 36 36 34 31 29 27 25 24 22 21 20 19 20 24 21 20 19 19 18 16 14 12 13 14 14 14 13 13 13 13 11 9 8 7 7 6 6 6 7 8
41 37 35 36 38 38 34 31 28 27 26 24 23 21 21 23 24 22 22 22 21 20 17 14 14 15 15 15 15 14 13 12 11 10 8 7 6 6 6 6 6 7 8
42 45 41 39 40 40 38 34 31 29 27 26 23 22 24 25 26 25 25 24 22 20 17 16 16 16 17 16 15 14 12 11 10 8 7 6 6 6 7 7 7 8 9
51 48 42 41 41 41 40 36 34 32 30 28 26 26 26 26 27 27 28 26 24 21 18 18 18 18 17 16 14 13 11 9 8 7 7 7 7 8 8 8 8 8 9
38 53 40 45 43 43 41 39 37 35 33 30 29 29 28 29 30 31 30 29 26 23 22 21 20 19 18 16 14 12 10 9 8 8 7 7 7 7 7 7 7 7 8
21 45 48 49 44 43 42 40 37 35 33 32 32 30 30 32 33 34 31 29 26 24 23 22 21 19 18 15 14 12 11 9 8 7 6 6 5 5 4 5 5 6 7
31 31 50 46 49 44 41 39 37 34 32 32 32 31 32 33 34 34 32 29 26 25 25 23 22 20 17 16 14 12 10 9 7 5 4 3 3 3 3 4 5 7 9
34 27 53 53 47 45 42 40 37 36 35 35 34 33 34 34 34 33 31 29 28 27 26 24 23 21 19 17 14 11 9 7 5 3 1 1 3 4 5 6 7 9 10
59 22 47 46 44 46 42 40 39 37 36 35 35 34 34 33 33 32 31 29 28 28 28 27 25 23 19 15 12 9 7 4 2 1 2 4 6 7 8 9 10 11 12
70 16 51 51 55 47 44 40 38 38 37 36 36 35 35 36 35 34 32 31 30 29 29 28 26 22 18 14 11 8 5 4 4 5 7 9 10 11 12 13 13 14 14
64 51 22 62 61 49 46 40 39 38 38 38 38 38 37 37 36 34 32 32 32 31 31 29 25 21 17 14 10 7 6 6 7 9 11 13 14 15 17 17 18 18 18
69 61 8 54 46 52 44 41 40 40 40 38 38 38 39 38 37 35 34 34 33 34 32 29 25 21 17 14 11 9 9 10 11 12 15 16 17 17 19 21 23 23 22
55 54 26 20 55 51 47 42 38 38 39 39 39 39 38 38 38 38 37 36 35 36 33 30 26 21 18 15 13 12 12 13 14 15 17 18 17 17 20 22 24 27 27
33 56 38 40 48 52 43 37 34 36 40 39 40 41 41 39 38 37 37 37 37 36 34 30 25 21 18 17 16 16 15 14 17 19 19 17 19 25 28 27 26 27 28
33 37 37 30 25 58 47 40 38 37 40 42 41 41 40 40 40 39 37 37 37 36 33 29 25 22 22 20 19 19 19 22 25 23 26 26 24 27 28 23 25 24 26
33 42 47 10 31 54 46 41 39 37 38 38 38 40 41 40 39 38 37 36 37 35 32 30 29 27 25 23 21 23 25 26 29 25 19 18 21 26 27 25 25 26 26
18 24 51 17 37 55 39 39 36 33 31 34 38 39 40 40 40 39 39 38 38 37 34 33 31 30 29 24 27 25 25 26 26 29 27 24 27 27 28 22 24 26 29
15 23 32 43 15 29 42 37 39 36 34 35 36 38 40 42 43 43 42 42 40 38 36 35 32 31 29 30 31 30 29 33 31 32 32 28 27 31 27 27 24 26 31
Wind_Direction
232 222 222 224 225 205 194 192 193 186 182 176 176 177 167 168 172 167 164 155 139 114 94 124 132 130 125 124 121 118 117 114 111 107 113 116 111 109 103 88 69 64 65
228 217 223 224 223 208 195 192 189 185 181 181 182 181 172 180 178 169 170 160 123 114 113 135 137 128 124 121 119 119 120 116 112 112 116 116 113 106 94 85 73 65 67
225 223 220 219 219 212 196 191 187 186 184 185 185 186 183 179 179 179 179 177 151 133 145 143 137 133 128 124 120 120 118 119 121 120 119 113 110 102 94 86 78 72 71
224 221 222 220 215 214 200 191 188 187 186 186 185 187 185 183 182 180 184 181 164 156 155 150 144 140 133 125 120 118 120 121 119 120 119 114 109 102 95 87 79 75 73
223 224 225 219 216 215 205 195 190 187 187 185 186 187 188 184 185 189 186 174 169 169 160 154 148 142 133 127 124 125 126 125 124 122 120 115 111 105 96 89 85 80 75
229 221 222 218 217 214 208 199 193 188 187 185 185 189 189 190 187 188 182 174 171 171 161 155 149 143 139 133 131 132 130 130 127 122 119 115 111 104 95 88 82 75 69
236 226 217 214 215 214 206 199 193 191 188 187 188 190 192 191 182 182 182 181 175 169 163 158 154 150 145 139 135 134 131 130 124 121 119 117 110 101 94 86 76 68 60
233 234 216 207 209 211 205 199 194 191 189 188 189 192 191 182 177 183 184 186 173 167 165 161 159 154 147 140 136 135 134 132 127 123 119 116 108 99 91 82 69 58 55
226 232 219 210 204 204 201 199 195 191 190 190 190 193 187 179 178 184 184 183 172 168 167 164 162 154 149 143 139 138 138 136 129 126 123 116 105 98 87 72 63 55 52
215 216 222 217 204 200 198 197 195 192 191 192 191 190 184 182 182 181 181 177 171 169 167 168 163 158 150 145 144 142 140 136 130 127 123 116 108 98 90 78 68 62 56
208 217 222 211 207 199 196 194 193 192 192 192 191 187 185 184 182 178 179 174 173 171 171 168 164 160 152 150 147 144 139 136 131 129 123 114 103 92 85 81 77 68 53
204 212 214 216 208 204 196 193 191 192 193 192 188 184 188 185 183 178 177 175 174 173 172 166 164 160 155 152 150 146 141 136 130 125 116 108 99 94 91 87 77 66 54
198 198 213 204 209 207 199 194 193 193 192 191 188 188 188 185 183 178 179 177 177 174 171 169 165 164 158 155 151 146 138 131 127 123 114 104 100 95 89 77 68 54 38
225 195 205 200 211 206 203 197 196 196 193 191 189 189 189 186 184 179 181 179 180 175 172 171 167 164 159 155 149 140 133 128 124 120 116 102 88 78 65 53 40 23 9
208 175 203 208 204 206 203 200 197 195 194 192 191 189 190 189 185 183 181 180 179 176 172 171 167 163 158 151 144 136 131 127 121 113 103 84 59 38 18 4 356 352 350
203 263 200 204 199 207 202 202 197 194 194 193 192 190 190 189 186 185 181 181 179 176 172 172 168 162 153 148 143 137 130 124 120 116 87 358 332 329 328 328 330 334 340
220 258 189 197 191 207 201 201 199 196 195 194 191 190 189 186 184 182 181 182 180 177 175 173 167 161 159 159 158 157 157 160 165 231 309 311 310 312 312 312 315 318 322
223 182 171 212 208 204 202 199 199 197 196 193 190 189 187 184 182 183 184 182 182 180 177 170 168 169 171 176 180 184 196 226 263 285 287 289 292 297 299 302 302 303 306
224 230 231 191 201 201 199 198 198 199 197 193 190 190 188 185 183 184 185 184 184 182 177 173 176 180 186 192 197 207 229 255 273 284 287 288 290 292 292 293 292 292 295
228 227 186 185 195 201 196 197 198 198 197 193 192 192 189 187 185 185 187 186 185 183 180 181 185 191 198 204 214 231 252 267 276 279 283 287 288 290 289 290 290 287 287
232 220 214 148 187 198 194 195 198 199 197 194 193 193 193 192 190 188 187 188 187 186 187 190 195 200 208 216 227 245 263 272 277 279 279 277 280 291 294 293 290 286 283
244 233 212 155 186 196 193 191 198 204 199 197 196 196 194 194 193 194 192 190 190 191 194 199 204 211 219 229 239 254 259 268 280 283 272 261 270 292 295 287 280 279 278
229 236 219 187 192 198 193 191 196 201 202 200 197 199 198 197 197 198 196 195 195 199 203 207 213 220 228 235 246 253 261 274 279 285 276 263 278 291 297 282 274 269 269
228 236 225 27 201 193 189 193 198 201 204 205 204 202 203 202 200 201 201 200 202 206 210 214 219 224 228 235 245 256 274 280 300 273 298 282 275 291 292 273 271 270 269
220 231 241 222 163 187 190 193 197 197 201 207 209 208 206 206 205 204 205 205 207 210 213 218 224 229 233 235 245 260 271 284 287 279 283 289 281 281 281 273 273 271 268
198 229 248 259 254 183 184 200 200 200 204 208 211 211 212 211 209 208 208 210 211 213 216 220 224 226 230 234 249 262 270 275 281 286 280 287 291 290 283 270 268 272 278